Darstellungsparameter: Aktuell verwendete Einstellungen:
Skalierung der Graphiken ... ?
xyx+y,   Skalierungsfaktor:      Skalierung: Modus: x, Faktor: 1
Darstellungszeitraum ... ?
Vom - - bis: - -   Zeitraum: 25.09.2019 - 30.09.2019
Min/Max/Avg-Anzeige ... ?
Zeige MMA aktuell
Zeige MMA Monat
Zeige MMA alles
Zeige --A aktuell
Zeige --A Monat
Zeige --A alles
Keine MMA-Anzeige
MMA:
Average (ber die Originaldaten)
MMA-Basis: 25.09.2019 - 30.09.2019
Quicknavigation für Darstellung... ?
Tage:      1T, 2T, 3T, 5T -1T -2T -3T -5T +1T +2T +3T +5T
Wochen: 1W, 2W, 3W -1W -2W -3W +1W +2W +3W
Monate: 1M, 3M, 6M -1M -3M -6M +1M +3M +6M
Jahre:    1J, 3J, 5J, 10J -1J -3J -5J -10J +1J +3J +5J +10J
Nutze für die Darstellung ... ?
Originaldaten oder ...
Mittelwerte Minima Maxima auf...
Stundenbasis Tagesbasis Wochenbasis
Monatsbasis Jahresbasis      Datenbasis: Mittelwerte auf Stundenbasis
Darstellen als:
Statistik (Auto) Statistik J:M      Darstellung:
Zur Graphik,    zurück zur Übersicht aller Sensoren.
 
Tabellarische Datenbersicht: ?
 
Sensor: Nr:Datum:Temp:Abs-Feuchte:Windchill:Wind:
Aussen-T/F 1 25-09-2019 00:00:00 13.99167 C 11.57 g/m*3 13.99 C 0.13333 km/h
2 25-09-2019 01:00:00 14.13333 C 11.72 g/m*3 14.13 C 1.34167 km/h
3 25-09-2019 02:00:00 14.49167 C 11.93 g/m*3 14.49 C 3.35 km/h
4 25-09-2019 03:00:00 14.6 C 12.01 g/m*3 14.6 C 0.4 km/h
5 25-09-2019 04:00:00 14.55833 C 11.98 g/m*3 14.56 C 0.53333 km/h
6 25-09-2019 05:00:00 14.01667 C 11.59 g/m*3 14.02 C 1.33333 km/h
7 25-09-2019 06:00:00 13.64167 C 11.33 g/m*3 13.64 C 0.93333 km/h
8 25-09-2019 07:00:00 13.61667 C 11.33 g/m*3 13.62 C 0.8 km/h
9 25-09-2019 08:00:00 13.75 C 11.51 g/m*3 13.75 C 0 km/h
10 25-09-2019 09:00:00 14.33333 C 11.94 g/m*3 14.33 C 1.33333 km/h
11 25-09-2019 10:00:00 14.90833 C 12.03 g/m*3 14.91 C 8.475 km/h
12 25-09-2019 11:00:00 16.225 C 11.94 g/m*3 16.23 C 13.69167 km/h
13 25-09-2019 12:00:00 16.875 C 11.57 g/m*3 16.88 C 10.35833 km/h
14 25-09-2019 13:00:00 17.38333 C 11.46 g/m*3 17.38 C 11.81667 km/h
15 25-09-2019 14:00:00 17.38333 C 11.57 g/m*3 17.38 C 10.35833 km/h
16 25-09-2019 15:00:00 16.325 C 12.4 g/m*3 16.33 C 4.8 km/h
17 25-09-2019 16:00:00 17.08333 C 12.36 g/m*3 17.08 C 7.38333 km/h
18 25-09-2019 17:00:00 17.53333 C 12.19 g/m*3 17.53 C 7.24167 km/h
19 25-09-2019 18:00:00 16.775 C 11.91 g/m*3 16.77 C 2.54167 km/h
20 25-09-2019 19:00:00 15.625 C 11.72 g/m*3 15.63 C 0.53333 km/h
21 25-09-2019 20:00:00 15.10833 C 11.76 g/m*3 15.11 C 0 km/h
22 25-09-2019 21:00:00 14.71667 C 11.69 g/m*3 14.72 C 0.13333 km/h
23 25-09-2019 22:00:00 14.7 C 11.8 g/m*3 14.7 C 0 km/h
24 25-09-2019 23:00:00 14.65833 C 11.93 g/m*3 14.66 C 0 km/h
25 26-09-2019 00:00:00 14.55833 C 11.86 g/m*3 14.56 C 0.26667 km/h
Sensor: Nr:Datum:Temp:Abs-Feuchte:Windchill:Wind:
Aussen-T/F 26 26-09-2019 01:00:00 14.23333 C 11.65 g/m*3 14.23 C 0 km/h
27 26-09-2019 02:00:00 14.13333 C 11.67 g/m*3 14.13 C 0 km/h
28 26-09-2019 03:00:00 13.60833 C 11.29 g/m*3 13.61 C 0 km/h
29 26-09-2019 04:00:00 13.25833 C 11.08 g/m*3 13.26 C 0 km/h
30 26-09-2019 05:00:00 13.90833 C 11.6 g/m*3 13.91 C 2.01667 km/h
31 26-09-2019 06:00:00 14.125 C 11.78 g/m*3 14.13 C 0.53333 km/h
32 26-09-2019 07:00:00 14.35833 C 11.84 g/m*3 14.36 C 0.13333 km/h
33 26-09-2019 08:00:00 14.74167 C 12.12 g/m*3 14.74 C 0.26667 km/h
34 26-09-2019 09:00:00 15.10833 C 12.35 g/m*3 15.11 C 0.4 km/h
35 26-09-2019 10:00:00 15.86667 C 12.91 g/m*3 15.87 C 0.13333 km/h
36 26-09-2019 11:00:00 16.59167 C 13.37 g/m*3 16.59 C 0.93333 km/h
37 26-09-2019 12:00:00 17.61667 C 13.75 g/m*3 17.62 C 5.225 km/h
38 26-09-2019 13:00:00 17.775 C 13.9 g/m*3 17.77 C 1.06667 km/h
39 26-09-2019 14:00:00 17.51667 C 13.84 g/m*3 17.52 C 0.93333 km/h
40 26-09-2019 15:00:00 18.05833 C 14.13 g/m*3 18.06 C 1.2 km/h
41 26-09-2019 16:00:00 18.83333 C 14.32 g/m*3 18.83 C 4.15 km/h
42 26-09-2019 17:00:00 18.91667 C 14.2 g/m*3 18.92 C 4.675 km/h
43 26-09-2019 18:00:00 18.71667 C 14.24 g/m*3 18.72 C 2.68333 km/h
44 26-09-2019 19:00:00 18.04167 C 13.99 g/m*3 18.04 C 2.01667 km/h
45 26-09-2019 20:00:00 17.39167 C 13.29 g/m*3 17.39 C 6.03333 km/h
46 26-09-2019 21:00:00 17.36667 C 13.16 g/m*3 17.37 C 5.5 km/h
47 26-09-2019 22:00:00 17.725 C 13.08 g/m*3 17.73 C 10.23333 km/h
48 26-09-2019 23:00:00 17.81667 C 12.99 g/m*3 17.82 C 7.5 km/h
49 27-09-2019 00:00:00 17.98333 C 12.86 g/m*3 17.98 C 6.975 km/h
50 27-09-2019 01:00:00 18.05 C 12.68 g/m*3 18.05 C 10.20833 km/h
Sensor: Nr:Datum:Temp:Abs-Feuchte:Windchill:Wind:
Aussen-T/F 51 27-09-2019 02:00:00 17.96667 C 12.58 g/m*3 17.97 C 9.68333 km/h
52 27-09-2019 03:00:00 16.71667 C 12.82 g/m*3 16.72 C 6.18333 km/h
53 27-09-2019 04:00:00 16.29167 C 12.83 g/m*3 16.29 C 2.95 km/h
54 27-09-2019 05:00:00 16.16667 C 12.81 g/m*3 16.17 C 2.13333 km/h
55 27-09-2019 06:00:00 15.78333 C 12.67 g/m*3 15.78 C 2.15 km/h
56 27-09-2019 07:00:00 14.41667 C 11.71 g/m*3 14.42 C 2.28333 km/h
57 27-09-2019 08:00:00 14.1 C 11.62 g/m*3 14.1 C 0.66667 km/h
58 27-09-2019 09:00:00 13.99167 C 11.57 g/m*3 13.99 C 3.75 km/h
59 27-09-2019 10:00:00 14.69167 C 12.02 g/m*3 14.69 C 6.58333 km/h
60 27-09-2019 11:00:00 15.35 C 12.16 g/m*3 15.35 C 6.7 km/h
61 27-09-2019 12:00:00 15.96667 C 12.11 g/m*3 15.97 C 11.29167 km/h
62 27-09-2019 13:00:00 17.29167 C 11.95 g/m*3 17.29 C 12.9 km/h
63 27-09-2019 14:00:00 18.15833 C 11.77 g/m*3 18.16 C 14.9 km/h
64 27-09-2019 15:00:00 18.21667 C 11.79 g/m*3 18.22 C 13.83333 km/h
65 27-09-2019 16:00:00 17.96667 C 11.79 g/m*3 17.97 C 12.1 km/h
66 27-09-2019 17:00:00 18.98333 C 11.78 g/m*3 18.98 C 12.36667 km/h
67 27-09-2019 18:00:00 18.01667 C 11.54 g/m*3 18.02 C 10.75833 km/h
68 27-09-2019 19:00:00 16.05833 C 11.25 g/m*3 16.06 C 3.75833 km/h
69 27-09-2019 20:00:00 15.13333 C 11.37 g/m*3 15.13 C 0.26667 km/h
70 27-09-2019 21:00:00 14.275 C 11.06 g/m*3 14.28 C 0.26667 km/h
71 27-09-2019 22:00:00 13.83333 C 11.04 g/m*3 13.83 C 0 km/h
72 27-09-2019 23:00:00 13.5 C 10.98 g/m*3 13.5 C 0 km/h
73 28-09-2019 00:00:00 12.875 C 10.64 g/m*3 12.88 C 0.66667 km/h
74 28-09-2019 01:00:00 12.90833 C 10.72 g/m*3 12.91 C 3.21667 km/h
75 28-09-2019 02:00:00 14.21667 C 11.16 g/m*3 14.22 C 9.13333 km/h
Sensor: Nr:Datum:Temp:Abs-Feuchte:Windchill:Wind:
Aussen-T/F 76 28-09-2019 03:00:00 14.825 C 11.33 g/m*3 14.83 C 6.45 km/h
77 28-09-2019 04:00:00 14.04167 C 11.17 g/m*3 14.04 C 5.63333 km/h
78 28-09-2019 05:00:00 13.95 C 11.05 g/m*3 13.95 C 6.84167 km/h
79 28-09-2019 06:00:00 14.4 C 11.21 g/m*3 14.4 C 9.4 km/h
80 28-09-2019 07:00:00 14.1 C 11.28 g/m*3 14.1 C 1.875 km/h
81 28-09-2019 08:00:00 13.89167 C 11.18 g/m*3 13.89 C 7.94167 km/h
82 28-09-2019 09:00:00 14.35833 C 11.11 g/m*3 14.36 C 12.225 km/h
83 28-09-2019 10:00:00 15.4 C 11.21 g/m*3 15.4 C 12.75833 km/h
84 28-09-2019 11:00:00 16.30833 C 11.15 g/m*3 16.31 C 17.43333 km/h
85 28-09-2019 12:00:00 16.85 C 11.27 g/m*3 16.85 C 13.16667 km/h
86 28-09-2019 13:00:00 17.21667 C 11.3 g/m*3 17.22 C 17.3 km/h
87 28-09-2019 14:00:00 17.49167 C 11.4 g/m*3 17.49 C 17.3 km/h
88 28-09-2019 15:00:00 17.16667 C 11.3 g/m*3 17.17 C 15.43333 km/h
89 28-09-2019 16:00:00 17.35833 C 11.48 g/m*3 17.36 C 14.23333 km/h
90 28-09-2019 17:00:00 17.71667 C 11.43 g/m*3 17.72 C 15.96667 km/h
91 28-09-2019 18:00:00 17.14167 C 11.18 g/m*3 17.14 C 11.025 km/h
92 28-09-2019 19:00:00 15.7 C 10.78 g/m*3 15.7 C 8.99167 km/h
93 28-09-2019 20:00:00 15.24167 C 10.7 g/m*3 15.24 C 5.89167 km/h
94 28-09-2019 21:00:00 14.975 C 10.58 g/m*3 14.98 C 7.79167 km/h
95 28-09-2019 22:00:00 15.13333 C 10.51 g/m*3 15.13 C 9.53333 km/h
96 28-09-2019 23:00:00 14.15 C 10.33 g/m*3 14.15 C 4.55 km/h
97 29-09-2019 00:00:00 13.875 C 10.33 g/m*3 13.88 C 2.81667 km/h
98 29-09-2019 01:00:00 13.95 C 10.4 g/m*3 13.95 C 0.66667 km/h
99 29-09-2019 02:00:00 13.65 C 10.49 g/m*3 13.65 C 0 km/h
100 29-09-2019 03:00:00 13.48333 C 10.54 g/m*3 13.48 C 0 km/h
Sensor: Nr:Datum:Temp:Abs-Feuchte:Windchill:Wind:
Aussen-T/F 101 29-09-2019 04:00:00 13.525 C 10.66 g/m*3 13.53 C 0 km/h
102 29-09-2019 05:00:00 13.81667 C 10.66 g/m*3 13.82 C 0.26667 km/h
103 29-09-2019 06:00:00 13.94167 C 10.43 g/m*3 13.94 C 0.93333 km/h
104 29-09-2019 07:00:00 14.025 C 10.46 g/m*3 14.03 C 1.33333 km/h
105 29-09-2019 08:00:00 14.95833 C 10.59 g/m*3 14.96 C 5.75833 km/h
106 29-09-2019 09:00:00 16.53333 C 10.83 g/m*3 16.53 C 13.69167 km/h
107 29-09-2019 10:00:00 17.45833 C 10.94 g/m*3 17.46 C 19.175 km/h
108 29-09-2019 11:00:00 17.74167 C 11 g/m*3 17.74 C 17.84167 km/h
109 29-09-2019 12:00:00 18.25833 C 11.19 g/m*3 18.26 C 17.16667 km/h
110 29-09-2019 13:00:00 18.1 C 11.15 g/m*3 18.1 C 13.03333 km/h
111 29-09-2019 14:00:00 18.61667 C 10.9 g/m*3 18.62 C 21.325 km/h
112 29-09-2019 15:00:00 18.21667 C 11.38 g/m*3 18.22 C 17.44167 km/h
113 29-09-2019 16:00:00 17.10833 C 11.91 g/m*3 17.11 C 13.025 km/h
114 29-09-2019 17:00:00 17 C 11.93 g/m*3 17 C 12.35833 km/h
115 29-09-2019 18:00:00 17.5 C 12.36 g/m*3 17.5 C 12.1 km/h
116 29-09-2019 19:00:00 17.70833 C 12.54 g/m*3 17.71 C 15.56667 km/h
117 29-09-2019 20:00:00 17.275 C 12.96 g/m*3 17.27 C 5.9 km/h
118 29-09-2019 21:00:00 16.79167 C 13.17 g/m*3 16.79 C 5.63333 km/h
119 29-09-2019 22:00:00 16.91667 C 13.29 g/m*3 16.92 C 12.08333 km/h
120 29-09-2019 23:00:00 16.61667 C 13 g/m*3 16.62 C 14.49167 km/h
121 30-09-2019 00:00:00 15.65 C 11.66 g/m*3 15.65 C 18.11667 km/h
122 30-09-2019 01:00:00 15.34167 C 11.27 g/m*3 15.34 C 18.225 km/h
123 30-09-2019 02:00:00 15.15833 C 11.2 g/m*3 15.16 C 17.03333 km/h
124 30-09-2019 03:00:00 15.25833 C 11.31 g/m*3 15.26 C 15.3 km/h
125 30-09-2019 04:00:00 15.04167 C 11.38 g/m*3 15.04 C 11.95 km/h
Sensor: Nr:Datum:Temp:Abs-Feuchte:Windchill:Wind:
Aussen-T/F 126 30-09-2019 05:00:00 13.75833 C 10.95 g/m*3 13.76 C 9.925 km/h
127 30-09-2019 06:00:00 13.19167 C 10.65 g/m*3 13.19 C 9.93333 km/h
128 30-09-2019 07:00:00 13.08333 C 10.34 g/m*3 13.08 C 10.08333 km/h
129 30-09-2019 08:00:00 13.29167 C 10.07 g/m*3 13.29 C 12.1 km/h
130 30-09-2019 09:00:00 13.94167 C 10 g/m*3 13.94 C 13.3 km/h
131 30-09-2019 10:00:00 14.45 C 10.08 g/m*3 14.45 C 14.5 km/h
132 30-09-2019 11:00:00 15.13333 C 10.09 g/m*3 15.13 C 15.16667 km/h
133 30-09-2019 12:00:00 15.71667 C 9.81 g/m*3 15.72 C 16.76667 km/h
134 30-09-2019 13:00:00 16.40833 C 9.68 g/m*3 16.41 C 15.56667 km/h
135 30-09-2019 14:00:00 17.10833 C 9.71 g/m*3 17.11 C 14.23333 km/h
136 30-09-2019 15:00:00 17.75833 C 9.83 g/m*3 17.76 C 14.63333 km/h
137 30-09-2019 16:00:00 18.45833 C 9.85 g/m*3 18.46 C 14.36667 km/h
138 30-09-2019 17:00:00 18.45 C 9.54 g/m*3 18.45 C 12.1 km/h
139 30-09-2019 18:00:00 17.69167 C 10.24 g/m*3 17.69 C 3.34167 km/h
140 30-09-2019 19:00:00 14.83333 C 10.22 g/m*3 14.83 C 0.4 km/h
141 30-09-2019 20:00:00 14.20833 C 10.42 g/m*3 14.21 C 3.34167 km/h
142 30-09-2019 21:00:00 14.69167 C 10.71 g/m*3 14.69 C 3.74167 km/h
143 30-09-2019 22:00:00 14.68333 C 10.7 g/m*3 14.68 C 3.6 km/h
144 30-09-2019 23:00:00 14.23333 C 10.44 g/m*3 14.23 C 1.06667 km/h

Maximal/Minimal-Werte vom 25.09.2019 - 30.09.2019

Sensor Min Max Avg
Temp
(Aussen-T/F)
12.7 °C
28-09-2019  01:25:00
19.2 °C
27-09-2019  17:40:00
15.75 °C
Abs-Feuchte
(Aussen-T/F)
9.54 g/m*3
30-09-2019  17:00:00
14.32 g/m*3
26-09-2019  16:00:00
11.5 g/m*3
Windchill
(Aussen-T/F)
12.88 C
28-09-2019  00:00:00
18.98 C
27-09-2019  17:00:00
15.64 C

Die Daten stammen von einer Davis Vantage Pro 2 Wetter-Station und werden unter Linux mit der Software wview2wettercgi und aufbereitet. Alle Angaben erfolgen ohne Gewähr für ihre Vollständigkeit oder Richtigkeit.
Kontakt: Rainer Krienke krienke@uni-koblenz.de . Meine Webseiten an der Uni Koblenz oder privat.
Version: $Revision: 0.78 $